全球星 M060星 (GLOBALSTAR M060)

导读

GLOBALSTAR M060是全球星(Globalstar)系统下的一颗低轨通信卫星,由全球卫星通信联盟部署,于2000年2月8日发射升空。该卫星运行在高度约1414公里、倾角52度的近地轨道,属于全球星第一代空间段网络,主要为海洋、沙漠等偏远无地面信号覆盖区域提供语音通信与低速率数据传输服务,助力实现南北纬70度范围内的全域移动通信覆盖。

基本信息
目录编号:
26083
目录名称:
GLOBALSTAR M060
国际标识:
2000-008C
轨道中心:
EARTH
卫星名称:
全球星 M060星
卫星全名:
全球星 M060星 (GLOBALSTAR M060)
卫星状态:
在轨 (已飞行9630 天)
发射日期:
2000-02-08 UTC
国别 :
(GLOB)
星等 :
--
轨道信息
数据来源 国际轨道数据 AOE轨道数据
星历时间 2026-06-20T13:49:14+0800
1天前
查看轨道信息
2026-06-21T23:00:00+0800
4小时前
查看轨道信息
半长轴 7980.805km 7980.81km
偏心率 0.0002781 0.0002754
轨道倾角 52.001° 52.002°
近地点辐角 148.950° 151.832°
升交点赤经 105.501° 101.631°
平近点角 16.832° 317.050°
近地点 1600.448km 1600.475km
远地点 1604.888km 1604.871km
周期 118.258分钟 118.258分钟
每日圈数 12.176788 12.176776
详细信息
固有亮度:
5
最大亮度:
7.9
平衡模式:
三轴稳定
覆盖范围:
全球
运营商:
全球星公司
运营商所在国:
美国
使用方式:
暂无
卫星简介
全球星星座由48颗卫星加8颗备份星组成。这些卫星分布在8个倾角为52度的圆形轨道平面上,每个轨道平面6颗卫星,另有1 颗备用星。轨道高度约为1414km,传输时延和处理时延小于300ms,整个系统的覆盖区为南北纬70度以内的地区。该卫星已退役。
2D轨道图
3D轨道图
轨道高度分析图
轨道倾角分析图
轨道综合分析图
查看轨道综合分析图